Regional Weather Roundup
Issued by NWS State College, PA

Current Version | Previous Version | Text Only | Print | Product List | Glossary On
Versions: 1 2 3 4 5 6 7 8 9 10 11 12 13 14 15 16 17 18 19 20 21 22 23 24 25 26 27 28 29 30 31 32 33 34 35 36 37 38 39 40 41 42 43 44 45 46 47 48 49 50
000
ASUS41 KCTP 121510
RWRCTP

REGIONAL WEATHER ROUNDUP
NATIONAL WEATHER SERVICE STATE COLLEGE PA
1000 AM EST THU DEC 12 2019

Note: "fair" indicates few or no clouds below 12,000 feet with no
significant weather and/or obstructions to visibility.

* = STATION THAT DOES NOT REPORT PRECIPITATION /E.G. RAIN...SNOW...ETC/
    THUNDER OR FOG.

PAZ002>004-007>009-013>016-020>023-029>032-121600-
WESTERN PENNSYLVANIA

CITY           SKY/WX    TMP DP  RH WIND       PRES   REMARKS
ERIE           FAIR      22  13  68 S6        30.62F WCI  14
MEADVILLE      FAIR      21  12  68 VRB5      30.58R WCI  15
FRANKLIN*      FAIR      21  14  74 SE8       30.59S WCI  11
NEW CASTLE     FAIR      23  19  85 VRB3      30.61R
BEAVER COUNTY  SUNNY     25  18  74 SE7       30.59
BUTLER*        FAIR      26  17  68 SE5       30.61S
PITTSBURGH INT CLOUDY    23  16  74 SE5       30.60R
PITTSBURGH     FAIR      24  17  74 SE6       30.59S
INDIANA*       SUNNY     23  16  74 SE6       30.64F
LATROBE        SUNNY     27  21  80 CALM      30.63R
WASHINGTON CO* FAIR      27  20  75 S6        30.63S
$$

PAZ004>006-010>012-017>019-024>028-033>037-041-042-045-046-049>053-121600-
CENTRAL PENNSYLVANIA

CITY           SKY/WX    TMP DP  RH WIND       PRES   REMARKS
BRADFORD       FAIR      19  12  74 VRB3      30.56R
DUBOIS         FAIR      20  11  68 VRB5      30.57S WCI  13
CLEARFIELD     FAIR      19  12  74 SW6       30.62R WCI  11
JOHNSTOWN      FAIR      22  14  71 S6        30.55R WCI  14
ALTOONA        FAIR      25  12  58 CALM      30.63R
STATE COLLEGE  SUNNY     23  12  63 CALM      30.66R
WILLIAMSPORT   FAIR      28  17  63 SW6       30.70R
SELINSGROVE    FAIR      26  14  60 CALM      30.73R
FT INDIANTOWN  PTSUNNY   28  13  52 CALM      30.72R
CAPITAL CITY   FAIR      33  12  41 CALM      30.74R
HARRISBURG     PTSUNNY   32  13  45 W3        30.73R
YORK           FAIR      30  12  47 CALM      30.72R
$$

PAZ038>040-043-044-047-048-054-055-060>062-067>071-121600-
EASTERN PENNSYLVANIA

CITY           SKY/WX    TMP DP  RH WIND       PRES   REMARKS
SCRANTON       FAIR      25  11  55 CALM      30.67R
MOUNT POCONO   FAIR      19  12  74 CALM      30.60R
ALLENTOWN      FAIR      31  13  47 CALM      30.73R
QUAKERTOWN*    SUNNY     30  14  51 NW3       30.72R
READING        FAIR      30  15  53 CALM      30.73R
LANCASTER      FAIR      31  15  52 N5        30.73R
COATESVILLE    FAIR      28  14  54 CALM      30.72R
POTTSTOWN      FAIR      29  13  51 N5        30.74R
BLUE BELL      FAIR      30  13  49 CALM      30.73R
DOYLESTOWN     FAIR      32  14  47 N6        30.71R
WILLOW GROVE   NOT AVBL
NORTH PHILA    FAIR      34  13  41 NE6       30.76R
PHILADELPHIA   PTSUNNY   33  11  39 N8        30.75R
$$



USA.gov is the U.S. government's official web portal to all federal, state and local government web resources and services.